This is the latest recevied weather packets stored in our database for station/object JF2ZGN-13. If no packets are shown the sender has not sent any weather packets the latest 10 day(s).
| Time | Temp. | Humidity | Pressure | Rain* | Wind** | Luminosity | Snow |
|---|---|---|---|---|---|---|---|
| 1777489230 | 7.78° C | 48% | 909.3 hPa | 0.25 mm | - | - | - |
| 1777488630 | 7.78° C | 46% | 909.2 hPa | 0.25 mm | - | - | - |
| 1777488030 | 7.78° C | 47% | 909 hPa | 0.25 mm | - | - | - |
| 1777487429 | 7.78° C | 49% | 909.1 hPa | 0.25 mm | - | - | - |
| 1777486830 | 7.78° C | 47% | 909.2 hPa | 0.25 mm | - | - | - |
| 1777486228 | 7.78° C | 47% | 909 hPa | 0.25 mm | - | - | - |
| 1777485628 | 7.78° C | 45% | 908.9 hPa | 0.25 mm | - | - | - |
| 1777485027 | 7.78° C | 48% | 908.7 hPa | 0.25 mm | - | - | - |
| 1777484427 | 8.33° C | 40% | 908.6 hPa | 0 mm | - | - | - |
| 1777483828 | 8.33° C | 41% | 908.6 hPa | 0 mm | - | - | - |
| 1777483226 | 8.33° C | 40% | 908.4 hPa | 0 mm | - | - | - |
| 1777482626 | 8.33° C | 40% | 908.5 hPa | 0 mm | - | - | - |
| 1777482025 | 8.33° C | 40% | 908.4 hPa | 0 mm | - | - | - |
| 1777481425 | 8.89° C | 41% | 908.4 hPa | 0 mm | - | - | - |
| 1777480824 | 8.33° C | 42% | 908.4 hPa | 0 mm | - | - | - |
| 1777480224 | 8.89° C | 53% | 908.5 hPa | 0 mm | - | - | - |
| 1777479624 | 8.33° C | 53% | 908.5 hPa | 0 mm | - | - | - |
| 1777479023 | 8.89° C | 53% | 908.5 hPa | 0 mm | - | - | - |
| 1777478422 | 8.89° C | 54% | 908.6 hPa | 0 mm | - | - | - |
| 1777477822 | 8.89° C | 55% | 908.6 hPa | 0 mm | - | - | - |
| 1777477222 | 8.89° C | 58% | 908.6 hPa | 0 mm | - | - | - |
| 1777476621 | 8.89° C | 58% | 908.5 hPa | 0 mm | - | - | - |
| 1777476021 | 8.89° C | 60% | 908.6 hPa | 0 mm | - | - | - |
| 1777475420 | 8.89° C | 61% | 908.6 hPa | 0 mm | - | - | - |
| 1777474820 | 8.89° C | 62% | 908.6 hPa | 0 mm | - | - | - |
* Rain since midnight (hover to see other rain measurements)
** Current wind speed in m/s (hover to see current wind gust speed)